Flag for U.S.A. Weather past 2 weeks in Paterson, New Jersey, U.S.A.

Now
44 °F

Overcast.


Feels Like: 40 °F
Forecast: 40 / 49 °F
Wind: 7 mph from North

Location: Essex County Airport

Current Time: Mar 27, 2015 at 3:33:13 PM

Latest Report: Mar 27, 2015 at 2:53 PM


Visibility: 10 mi

Pressure: 29.75 "Hg

Humidity: 55%

Dew point: 29 °F

Location of PatersonLocation

Historic Weather in Paterson — Graph

°F

Paterson temperature yesterday

Maximum temperature yesterday: 53 °F (at 5:53 PM)
Minimum temperature yesterday: 38 °F (at 12:53 AM)
Average temperature yesterday: 45 °F

Past Weeks' High & Low Weather Summary

 TemperatureHumidityPressure
High54 °F (Mar 17, 11:53 AM)96% (Mar 15, 12:53 AM)30.68 "Hg (Mar 15, 12:53 AM)
Low21 °F (Mar 23, 6:53 AM)16% (Mar 12, 1:53 PM)29.59 "Hg (Mar 17, 10:53 AM)
Average37 °F56%30.11 "Hg
* Reported Mar 12 1:53 PM — Mar 27 1:53 PM, Paterson, Weather by CustomWeather, © 2015

Note: Actual official high and low records may vary slightly from our data, if they occured in-between our weather recording intervals... More about our weather records

Advertising

Paterson weather history for previous 24 hours

 ConditionsComfort  
Time TempWeatherWind HumidityBarometerVisibility
1:53 PM
Fri, Mar 27
44 °FOvercast.5 mph55%29.76 "Hg10 mi
12:53 PM45 °FCloudy.5 mph60%29.76 "Hg10 mi
11:53 AM44 °FMostly cloudy.7 mph63%29.77 "Hg10 mi
10:53 AM42 °FCloudy.5 mph71%29.80 "Hg10 mi
9:53 AM40 °FMostly cloudy.5 mph77%29.78 "Hg10 mi
8:53 AM39 °FOvercast.No wind82%29.78 "Hg10 mi
8:00 AM38 °FCloudy.No wind83%29.76 "Hg10 mi
6:53 AM38 °FRain. Mostly cloudy.5 mph83%29.79 "Hg5 mi
5:53 AM38 °FLight rain. Mostly cloudy.3 mph86%29.78 "Hg7 mi
4:53 AM40 °FLight rain. Overcast.5 mph83%29.77 "Hg7 mi
3:53 AM41 °FRain. Mostly cloudy.No wind82%29.75 "Hg5 mi
2:53 AM43 °FMostly cloudy.6 mph79%29.72 "Hg10 mi
1:53 AM43 °FLight rain. Overcast.5 mph86%29.74 "Hg10 mi
1:02 AM44 °FOvercast.3 mph82%29.70 "Hg10 mi
12:53 AM44 °FMostly cloudy.3 mph82%29.70 "Hg10 mi
11:53 PM
Thu, Mar 26
44 °FLight rain. Overcast.7 mph85%29.70 "Hg10 mi
11:00 PM47 °FLight rain. Mostly cloudy.8 mph86%29.65 "Hg10 mi
10:02 PM50 °FLight rain. Fog.3 mph86%29.66 "Hg5 mi
9:53 PM50 °FRain. Fog.5 mph86%29.68 "Hg4 mi
9:00 PM52 °FMostly cloudy.5 mph86%29.65 "Hg8 mi
7:53 PM52 °FFog.No wind89%29.61 "Hg4 mi
7:00 PM52 °FFog.No wind89%29.59 "Hg3 mi
5:53 PM53 °FFog.3 mph86%29.64 "Hg3 mi
4:53 PM50 °FFog.No wind89%29.67 "Hg2 mi
3:53 PM49 °FFog.No wind90%29.70 "Hg2 mi
3:03 PM48 °FLight rain. Fog.No wind89%29.72 "Hg1 mi
Weather by CustomWeather, © 2015

See weather overviewHow to use our weather pages